This is the latest recevied weather packets stored in our database for station/object SV1JSO-13. If no packets are shown the sender has not sent any weather packets the latest 10 day(s).
| Time | Temp. | Humidity | Pressure | Rain* | Wind** | Luminosity | Snow |
|---|---|---|---|---|---|---|---|
| 1787997600 | 29.44° C | 37% | 1010.9 hPa | 0 mm | - | 611 W/m² | - |
| 1787997300 | 29.44° C | 37% | 1010.9 hPa | 0 mm | - | 623 W/m² | - |
| 1787997000 | 29.44° C | 36% | 1010.8 hPa | 0 mm | - | 637 W/m² | - |
| 1787996700 | 30° C | 35% | 1011 hPa | 0 mm | - | 625 W/m² | - |
| 1787996400 | 30° C | 35% | 1011.1 hPa | 0 mm | - | 621 W/m² | - |
| 1787996100 | 29.44° C | 36% | 1011.1 hPa | 0 mm | - | 601 W/m² | - |
| 1787995800 | 29.44° C | 36% | 1011.2 hPa | 0 mm | - | 615 W/m² | - |
| 1787995500 | 29.44° C | 36% | 1011.1 hPa | 0 mm | - | 591 W/m² | - |
| 1787995200 | 28.89° C | 37% | 1011.2 hPa | 0 mm | - | 619 W/m² | - |
| 1787994900 | 28.89° C | 36% | 1011.3 hPa | 0 mm | - | 572 W/m² | - |
| 1787994600 | 28.33° C | 37% | 1011.4 hPa | 0 mm | - | 578 W/m² | - |
| 1787994307 | 28.33° C | 37% | 1011.4 hPa | 0 mm | - | 563 W/m² | - |
| 1787994000 | 28.89° C | 36% | 1011.5 hPa | 0 mm | - | 577 W/m² | - |
| 1787993700 | 28.33° C | 37% | 1011.5 hPa | 0 mm | - | 563 W/m² | - |
| 1787993400 | 28.33° C | 37% | 1011.3 hPa | 0 mm | - | 567 W/m² | - |
| 1787993100 | 28.33° C | 37% | 1011.4 hPa | 0 mm | - | 560 W/m² | - |
| 1787992800 | 28.33° C | 37% | 1011.4 hPa | 0 mm | - | 570 W/m² | - |
| 1787992500 | 28.33° C | 37% | 1011.4 hPa | 0 mm | - | 569 W/m² | - |
| 1787992200 | 28.33° C | 37% | 1011.3 hPa | 0 mm | - | 556 W/m² | - |
| 1787991900 | 27.78° C | 37% | 1011.3 hPa | 0 mm | - | 526 W/m² | - |
| 1787991600 | 27.78° C | 37% | 1011.3 hPa | 0 mm | - | 521 W/m² | - |
| 1787991300 | 27.78° C | 37% | 1011.3 hPa | 0 mm | - | 544 W/m² | - |
| 1787991000 | 27.78° C | 38% | 1011.2 hPa | 0 mm | - | 535 W/m² | - |
| 1787990700 | 28.33° C | 37% | 1011.3 hPa | 0 mm | - | 519 W/m² | - |
| 1787990400 | 27.78° C | 38% | 1011.4 hPa | 0 mm | - | 515 W/m² | - |
* Rain latest hour (hover to see other rain measurements)
** Current wind speed in m/s (hover to see current wind gust speed)